Powrót do katalogu

PSLV DEB

AktywnyPO
NORAD 27142·DEBRIS·🇮🇳 India

Wystrzelony Oct 22, 2001 z Satish Dhawan Space Centre

Loading…

Następne Przeloty (najbliższe 24 godziny)

TLE

ŚwieżeSource: Space-Track

Epoka: Sep 14, 2026, 01:16 UTC

1 27142U 01049CN  26257.05332116  .00000235  00000-0  10107-3 0  9995
2 27142  97.3551 283.3296 0274096 287.7567  69.3873 14.13816690271545

Śledź PSLV DEB w czasie rzeczywistym z AllMySat

Download on the App Store